TimeHST,TemperatureF,Dew PointF,Humidity,Sea Level PressureIn,VisibilityMPH,Wind Direction,Wind SpeedMPH,Gust SpeedMPH,PrecipitationIn,Events,Conditions,WindDirDegrees,DateUTC
12:53 AM,70.0,64.9,84,29.98,10.0,SW,5.8,-,N/A,,Scattered Clouds,220,2013-11-20 10:53:00
1:53 AM,70.0,63.0,78,29.97,10.0,SW,5.8,-,N/A,,Partly Cloudy,220,2013-11-20 11:53:00
2:53 AM,70.0,63.0,78,29.96,9.0,SSW,5.8,-,N/A,,Mostly Cloudy,210,2013-11-20 12:53:00
3:53 AM,78.8,71.6,78,29.96,10.0,WSW,8.1,-,N/A,,Mostly Cloudy,240,2013-11-20 13:53:00
3:54 AM,78.8,71.6,78,29.96,10.0,WSW,8.1,-,N/A,,Mostly Cloudy,240,2013-11-20 13:54:00
4:54 AM,71.1,64.0,78,29.96,10.0,WSW,6.9,-,N/A,,Overcast,240,2013-11-20 14:54:00
5:53 AM,70.0,63.0,78,29.97,10.0,SW,5.8,-,N/A,,Scattered Clouds,230,2013-11-20 15:53:00
5:54 AM,70.0,63.0,78,29.97,10.0,SW,5.8,-,N/A,,Scattered Clouds,230,2013-11-20 15:54:00
6:53 AM,70.0,64.0,81,29.98,10.0,SW,6.9,-,N/A,,Mostly Cloudy,230,2013-11-20 16:53:00
7:53 AM,75.0,66.9,76,29.98,10.0,SW,3.5,-,N/A,,Mostly Cloudy,220,2013-11-20 17:53:00
8:53 AM,79.0,70.0,74,29.99,10.0,South,5.8,-,N/A,,Mostly Cloudy,170,2013-11-20 18:53:00
9:53 AM,82.0,70.0,67,29.99,10.0,SSE,9.2,-,N/A,,Mostly Cloudy,150,2013-11-20 19:53:00
10:53 AM,82.9,71.1,67,29.97,10.0,ESE,9.2,-,N/A,,Mostly Cloudy,120,2013-11-20 20:53:00
11:53 AM,84.0,71.1,65,29.94,10.0,ESE,15.0,-,N/A,,Mostly Cloudy,110,2013-11-20 21:53:00
12:53 PM,84.0,71.1,65,29.92,10.0,ESE,13.8,-,N/A,,Mostly Cloudy,110,2013-11-20 22:53:00
1:53 PM,82.9,71.1,67,29.90,10.0,ESE,15.0,-,N/A,,Mostly Cloudy,110,2013-11-20 23:53:00
2:53 PM,81.0,71.1,72,29.89,10.0,ESE,10.4,-,N/A,,Mostly Cloudy,120,2013-11-21 00:53:00
3:53 PM,81.0,70.0,69,29.91,10.0,ESE,8.1,-,N/A,,Mostly Cloudy,120,2013-11-21 01:53:00
4:53 PM,79.0,70.0,74,29.93,10.0,SE,8.1,-,N/A,,Mostly Cloudy,130,2013-11-21 02:53:00
5:53 PM,75.9,70.0,82,29.94,10.0,SE,4.6,-,N/A,,Clear,140,2013-11-21 03:53:00
6:53 PM,75.9,70.0,82,29.96,10.0,SSW,3.5,-,N/A,,Mostly Cloudy,210,2013-11-21 04:53:00
7:53 PM,73.9,70.0,87,29.98,10.0,South,3.5,-,N/A,,Clear,180,2013-11-21 05:53:00
8:53 PM,73.0,70.0,90,29.99,10.0,South,3.5,-,N/A,,Clear,170,2013-11-21 06:53:00
9:53 PM,72.0,69.1,91,29.99,10.0,South,3.5,-,N/A,,Clear,190,2013-11-21 07:53:00
10:53 PM,73.0,69.1,87,30.00,10.0,SSW,4.6,-,N/A,,Mostly Cloudy,200,2013-11-21 08:53:00
11:53 PM,73.0,69.1,87,29.99,10.0,Calm,Calm,-,N/A,,Mostly Cloudy,0,2013-11-21 09:53:00